Location: Kerberlivit
(48.2787°N, 4.5413°W)
Time: 09:03:34
(UTC+00:00)

Cosmos 2219 Rocket - Pass Details

Date: 18 February 2020
Orbit: 828 x 846 km, 71.0° (Epoch: 30 March)

Event Time Altitude Azimuth Distance (km) Brightness Sun altitude
Exits shadow 03:59:03 22° 1° (N) 1,761 4.0 -33.8°
Drops below altitude 10° 04:01:20 10° 16° (NNE) 2,479 5.0 -33.5°
Sets 04:03:58 0° 25° (NNE) 3,417 5.9 -33.1°
